GOMX4-A (43197 NORAD) Tracking and Keplerian Element Data

This shows tracking and keplerian element data for the satellite.

Feedback or suggestion? Click here.




ElementValue
Catalog43197
NameGOMX4-A
Epoch Orbit2478
Epoch Day196.0678449
Epoch Year2018
RAAN324.4328
Inclination97.3503
Eccentricity0.002107
Argument of Perigee62.4377
Mean Anonmoly24.6361
Mean Motion15.23686987
Decay Rate3.66E-06
L11 43197U 18015F 18196.06784490 .00000366 00000-0 18111-4 0 9993
L22 43197 97.3503 324.4328 0021070 62.4377 24.6361 15.23686987 24786

Live tracking and technical data element details for GOMX4-A (NORAD 43197). GOMX4-A can be tracked NOW for your location showing map with azimuth and elevation plus other details from your city location.

Track the satellite on the map from your city or location and see movement details for azimuth, elevation, latitude, longitude, range, height, and movement on the map or in text.







IsCatalogInMostPopularTable: catalog: 43197, numindb: 75
Update: records affected: 1



GetName: 43197 GOMX4-A

Hit Count: updated at: Sun, 15 Jul 2018 23:11:25 GMT